| time (UTC) | temp F | wind direction | speed knots | gust knots | rain 1hr in | rain 24hr in | rain mn in | humidity % | barometer mb |
| 20260902143056 | 79 | 323 | 0.9 | 4.3 | 0.00 | 0.00 | 0.00 | 81 | 1012.8 |
| 20260902141555 | 78 | 320 | 0.9 | 4.3 | 0.00 | 0.00 | 0.00 | 83 | 1012.8 |
| 20260902140054 | 78 | 315 | 0.0 | 4.3 | 0.00 | 0.00 | 0.00 | 83 | 1012.7 |
| 20260902134558 | 77 | 355 | 0.0 | 2.6 | 0.00 | 0.00 | 0.00 | 84 | 1012.6 |
| 20260902133105 | 77 | 9 | 0.0 | 3.5 | 0.00 | 0.00 | 0.00 | 84 | 1012.4 |
| 20260902131601 | 76 | 342 | 0.0 | 2.6 | 0.00 | 0.00 | 0.00 | 85 | 1012.2 |
| 20260902130052 | 76 | 355 | 0.0 | 2.6 | 0.00 | 0.00 | 0.00 | 85 | 1011.9 |
| 20260902124552 | 76 | 355 | 0.0 | 2.6 | 0.00 | 0.00 | 0.00 | 85 | 1011.8 |
| 20260902123106 | 77 | 10 | 0.0 | 1.7 | 0.00 | 0.00 | 0.00 | 85 | 1011.8 |
| 20260902121557 | 77 | 360 | 0.0 | 2.6 | 0.00 | 0.00 | 0.00 | 85 | 1011.9 |
| 20260902120103 | 77 | 355 | 0.0 | 0.9 | 0.00 | 0.00 | 0.00 | 86 | 1011.8 |
| 20260902114546 | 77 | 355 | 0.0 | 1.7 | 0.00 | 0.00 | 0.00 | 85 | 1011.8 |
| 20260902113046 | 78 | 342 | 0.0 | 2.6 | 0.00 | 0.00 | 0.00 | 86 | 1011.8 |
| 20260902111554 | 78 | 326 | 0.0 | 1.7 | 0.00 | 0.00 | 0.00 | 86 | 1012.0 |
| 20260902110044 | 78 | 314 | 0.0 | 2.6 | 0.00 | 0.00 | 0.00 | 86 | 1011.9 |
| 20260902104540 | 79 | 333 | 0.0 | 1.7 | 0.00 | 0.00 | 0.00 | 86 | 1011.9 |
| 20260902103037 | 79 | 348 | 0.0 | 2.6 | 0.00 | 0.00 | 0.00 | 86 | 1012.1 |
| 20260902101537 | 79 | 349 | 0.0 | 2.6 | 0.00 | 0.00 | 0.00 | 85 | 1012.2 |
| 20260902100036 | 80 | 336 | 0.0 | 2.6 | 0.00 | 0.00 | 0.00 | 85 | 1012.3 |
| 20260902094531 | 80 | 342 | 0.0 | 2.6 | 0.00 | 0.00 | 0.00 | 85 | 1012.5 |
| 20260902093028 | 81 | 198 | 0.0 | 1.7 | 0.00 | 0.00 | 0.00 | 85 | 1012.6 |
| 20260902091525 | 82 | 198 | 0.0 | 2.6 | 0.00 | 0.00 | 0.00 | 84 | 1012.7 |
| 20260902090023 | 83 | 198 | 0.0 | 0.0 | 0.00 | 0.00 | 0.00 | 83 | 1012.7 |
| 20260902084521 | 83 | 198 | 0.0 | 0.9 | 0.00 | 0.00 | 0.00 | 83 | 1012.7 |
| 20260902083019 | 83 | 198 | 0.0 | 1.7 | 0.00 | 0.00 | 0.00 | 83 | 1012.9 |
| 20260902081517 | 83 | 198 | 0.0 | 1.7 | 0.00 | 0.00 | 0.00 | 82 | 1013.0 |
| 20260902080019 | 84 | 196 | 0.0 | 0.9 | 0.00 | 0.00 | 0.00 | 82 | 1013.2 |
| 20260902074515 | 84 | 196 | 0.0 | 1.7 | 0.00 | 0.00 | 0.00 | 82 | 1013.2 |
| 20260902073013 | 84 | 192 | 0.0 | 5.2 | 0.00 | 0.00 | 0.00 | 82 | 1013.3 |
| 20260902071518 | 84 | 206 | 0.0 | 1.7 | 0.00 | 0.00 | 0.00 | 82 | 1013.2 |
| 20260902070011 | 84 | 185 | 0.0 | 1.7 | 0.00 | 0.00 | 0.00 | 82 | 1013.3 |
| 20260902064511 | 84 | 183 | 0.0 | 2.6 | 0.00 | 0.00 | 0.00 | 82 | 1013.4 |
| 20260902063012 | 84 | 181 | 0.0 | 2.6 | 0.00 | 0.00 | 0.00 | 81 | 1013.5 |
| 20260902061510 | 84 | 206 | 0.0 | 1.7 | 0.00 | 0.00 | 0.00 | 80 | 1013.4 |
| 20260902060009 | 84 | 206 | 0.0 | 1.7 | 0.00 | 0.00 | 0.00 | 80 | 1013.4 |
| 20260902054512 | 84 | 206 | 0.0 | 0.0 | 0.00 | 0.00 | 0.00 | 79 | 1013.4 |
| 20260902053010 | 84 | 206 | 0.0 | 1.7 | 0.00 | 0.00 | 0.00 | 79 | 1013.5 |
| 20260902051508 | 85 | 204 | 0.0 | 0.0 | 0.00 | 0.00 | 0.00 | 79 | 1013.7 |